When you browse on this site, cookies collect data to enhance your experience and personalize the content and advertising you see.
Visit our Privacy Policy to learn more. By continuing to use the site, you agree to this use of cookies and data.
  • In United Kingdom
  • List of Countries
  • For 7 days
  • Water Temperature
  • Weather Map
  • Weather Widgets
  • user-avatar
    Login

    Hourly Weather Mahilyow

    Today, 22 August, Thursday

    Time Temperature Precipitation Wind Pressure Humidity
    00:00 +19°C° 0.3 mm 4 mps 751 mmHg 91%
    01:00 +18°C° 0.3 mm 4 mps 752 mmHg 91%
    02:00 +18°C° 0.3 mm 4 mps 752 mmHg 92%
    03:00 +16°C° 0.2 mm 5 mps 753 mmHg 91%
    04:00 +15°C° 0.2 mm 5 mps 753 mmHg 90%
    05:00 +15°C° 0.2 mm 6 mps 753 mmHg 89%
    06:00 +15°C° 0 mm 5 mps 754 mmHg 87%
    07:00 +15°C° 0 mm 5 mps 754 mmHg 86%
    08:00 +15°C° 0 mm 5 mps 755 mmHg 85%
    09:00 +17°C° 0 mm 5 mps 755 mmHg 80%
    10:00 +19°C° 0 mm 5 mps 755 mmHg 75%
    11:00 +20°C° 0 mm 5 mps 755 mmHg 70%
    12:00 +21°C° 0 mm 5 mps 756 mmHg 68%
    13:00 +21°C° 0 mm 5 mps 756 mmHg 65%
    14:00 +22°C° 0 mm 4 mps 756 mmHg 62%
    15:00 +22°C° 0 mm 4 mps 756 mmHg 64%
    16:00 +21°C° 0 mm 4 mps 756 mmHg 65%
    17:00 +21°C° 0 mm 4 mps 756 mmHg 67%
    18:00 +19°C° 0 mm 3 mps 756 mmHg 72%
    19:00 +18°C° 0 mm 3 mps 756 mmHg 77%
    20:00 +16°C° 0 mm 2 mps 756 mmHg 82%
    21:00 +15°C° 0 mm 2 mps 757 mmHg 81%
    22:00 +15°C° 0 mm 2 mps 757 mmHg 81%
    23:00 +14°C° 0 mm 2 mps 757 mmHg 81%

    Tomorrow, 23 August, Friday

    Time Temperature Precipitation Wind Pressure Humidity
    00:00 +14°C° 0 mm 2 mps 757 mmHg 82%
    01:00 +14°C° 0 mm 2 mps 757 mmHg 83%
    02:00 +13°C° 0 mm 2 mps 758 mmHg 84%
    03:00 +13°C° 0 mm 2 mps 757 mmHg 85%
    04:00 +13°C° 0 mm 2 mps 757 mmHg 87%
    05:00 +13°C° 0 mm 2 mps 757 mmHg 88%
    06:00 +14°C° 0 mm 2 mps 758 mmHg 84%
    07:00 +15°C° 0 mm 2 mps 758 mmHg 80%
    08:00 +17°C° 0 mm 2 mps 758 mmHg 75%
    09:00 +18°C° 0 mm 2 mps 758 mmHg 70%
    10:00 +19°C° 0 mm 2 mps 758 mmHg 65%
    11:00 +21°C° 0 mm 2 mps 758 mmHg 59%
    12:00 +21°C° 0 mm 2 mps 758 mmHg 56%
    13:00 +23°C° 0 mm 2 mps 758 mmHg 53%
    14:00 +24°C° 0 mm 2 mps 757 mmHg 50%
    15:00 +24°C° 0 mm 2 mps 757 mmHg 53%
    16:00 +23°C° 0 mm 2 mps 757 mmHg 55%
    17:00 +23°C° 0 mm 2 mps 757 mmHg 57%
    18:00 +21°C° 0 mm 1 mps 757 mmHg 64%
    19:00 +19°C° 0 mm 1 mps 757 mmHg 70%
    20:00 +16°C° 0 mm 1 mps 757 mmHg 77%
    21:00 +15°C° 0 mm 1 mps 757 mmHg 79%
    22:00 +15°C° 0 mm 1 mps 757 mmHg 82%
    23:00 +14°C° 0 mm 1 mps 757 mmHg 85%

    Day after tomorrow, 24 August, Saturday

    Time Temperature Precipitation Wind Pressure Humidity
    00:00 +14°C° 0 mm 1 mps 757 mmHg 86%
    01:00 +12°C° 0 mm 0 mps 757 mmHg 87%
    02:00 +12°C° 0 mm 0 mps 757 mmHg 88%
    03:00 +12°C° 0 mm 0 mps 757 mmHg 88%
    04:00 +12°C° 0 mm 0 mps 757 mmHg 89%
    05:00 +13°C° 0 mm 1 mps 757 mmHg 89%
    06:00 +14°C° 0 mm 1 mps 757 mmHg 83%
    07:00 +16°C° 0 mm 1 mps 757 mmHg 77%
    08:00 +19°C° 0 mm 1 mps 757 mmHg 71%
    09:00 +21°C° 0 mm 1 mps 757 mmHg 65%
    10:00 +22°C° 0 mm 1 mps 757 mmHg 59%
    11:00 +24°C° 0 mm 1 mps 756 mmHg 53%
    12:00 +24°C° 0 mm 1 mps 756 mmHg 51%
    13:00 +25°C° 0 mm 1 mps 756 mmHg 48%
    14:00 +23°C° 0 mm 0 mps 756 mmHg 45%
    15:00 +25°C° 0 mm 1 mps 755 mmHg 48%
    16:00 +25°C° 0 mm 1 mps 755 mmHg 50%
    17:00 +24°C° 0 mm 1 mps 755 mmHg 53%
    18:00 +22°C° 0 mm 1 mps 755 mmHg 59%
    19:00 +18°C° 0 mm 0 mps 755 mmHg 64%
    20:00 +16°C° 0 mm 0 mps 754 mmHg 70%
    21:00 +15°C° 0 mm 0 mps 755 mmHg 72%
    22:00 +15°C° 0 mm 0 mps 755 mmHg 74%
    23:00 +14°C° 0 mm 0 mps 755 mmHg 76%

    25 August, Sunday

    Time Temperature Precipitation Wind Pressure Humidity
    00:00 +14°C° 0 mm 0 mps 755 mmHg 77%
    01:00 +14°C° 0 mm 0 mps 754 mmHg 79%
    02:00 +13°C° 0 mm 0 mps 754 mmHg 80%
    03:00 +14°C° 0 mm 1 mps 754 mmHg 82%
    04:00 +14°C° 0 mm 1 mps 754 mmHg 84%
    05:00 +13°C° 0 mm 1 mps 754 mmHg 86%
    06:00 +15°C° 0 mm 1 mps 754 mmHg 81%
    07:00 +18°C° 0 mm 1 mps 755 mmHg 76%
    08:00 +20°C° 0 mm 1 mps 755 mmHg 70%
    09:00 +20°C° 0 mm 2 mps 755 mmHg 65%
    10:00 +23°C° 0 mm 2 mps 755 mmHg 59%
    11:00 +24°C° 0 mm 2 mps 755 mmHg 54%
    12:00 +24°C° 0 mm 2 mps 755 mmHg 52%
    13:00 +25°C° 0 mm 2 mps 755 mmHg 51%
    14:00 +25°C° 0 mm 2 mps 755 mmHg 50%
    15:00 +25°C° 0 mm 2 mps 755 mmHg 55%
    16:00 +24°C° 0 mm 2 mps 754 mmHg 60%
    17:00 +24°C° 0 mm 2 mps 754 mmHg 65%
    18:00 +21°C° 0 mm 2 mps 755 mmHg 74%
    19:00 +19°C° 0 mm 2 mps 755 mmHg 83%
    20:00 +18°C° 0 mm 2 mps 755 mmHg 91%
    21:00 +17°C° 0 mm 2 mps 755 mmHg 92%
    22:00 +16°C° 0 mm 2 mps 756 mmHg 92%
    23:00 +16°C° 0 mm 2 mps 756 mmHg 92%

    26 August, Monday

    Time Temperature Precipitation Wind Pressure Humidity
    00:00 +15°C° 0 mm 2 mps 756 mmHg 93%
    01:00 +15°C° 0 mm 2 mps 756 mmHg 93%
    02:00 +14°C° 0 mm 2 mps 756 mmHg 94%
    03:00 +14°C° 0 mm 2 mps 756 mmHg 94%
    04:00 +14°C° 0 mm 2 mps 756 mmHg 94%
    05:00 +13°C° 0 mm 2 mps 756 mmHg 94%
    06:00 +14°C° 0 mm 2 mps 757 mmHg 89%
    07:00 +16°C° 0 mm 2 mps 757 mmHg 84%
    08:00 +17°C° 0 mm 3 mps 757 mmHg 78%
    09:00 +19°C° 0 mm 3 mps 757 mmHg 71%
    10:00 +20°C° 0 mm 3 mps 757 mmHg 65%
    11:00 +22°C° 0 mm 3 mps 757 mmHg 58%
    12:00 +24°C° 0 mm 3 mps 757 mmHg 56%
    13:00 +24°C° 0 mm 2 mps 757 mmHg 53%
    14:00 +24°C° 0 mm 2 mps 757 mmHg 50%
    15:00 +24°C° 0 mm 2 mps 757 mmHg 53%
    16:00 +24°C° 0 mm 2 mps 756 mmHg 55%
    17:00 +24°C° 0 mm 2 mps 756 mmHg 58%
    18:00 +21°C° 0 mm 2 mps 756 mmHg 64%
    19:00 +19°C° 0 mm 2 mps 756 mmHg 69%
    20:00 +17°C° 0 mm 2 mps 756 mmHg 75%
    21:00 +16°C° 0 mm 2 mps 756 mmHg 76%
    22:00 +15°C° 0 mm 2 mps 757 mmHg 77%
    23:00 +15°C° 0 mm 2 mps 757 mmHg 79%

    27 August, Tuesday

    Time Temperature Precipitation Wind Pressure Humidity
    00:00 +14°C° 0 mm 2 mps 757 mmHg 79%
    01:00 +14°C° 0 mm 2 mps 757 mmHg 79%
    02:00 +14°C° 0 mm 2 mps 757 mmHg 80%
    03:00 +14°C° 0 mm 1 mps 757 mmHg 80%
    04:00 +13°C° 0 mm 1 mps 757 mmHg 80%
    05:00 +13°C° 0 mm 1 mps 757 mmHg 81%
    06:00 +15°C° 0 mm 1 mps 757 mmHg 76%
    07:00 +16°C° 0 mm 1 mps 757 mmHg 72%
    08:00 +18°C° 0 mm 2 mps 757 mmHg 68%
    09:00 +20°C° 0 mm 2 mps 757 mmHg 64%
    10:00 +21°C° 0 mm 2 mps 757 mmHg 59%
    11:00 +24°C° 0 mm 2 mps 757 mmHg 54%
    12:00 +24°C° 0 mm 2 mps 757 mmHg 53%
    13:00 +25°C° 0 mm 2 mps 757 mmHg 52%
    14:00 +25°C° 0 mm 2 mps 756 mmHg 51%
    15:00 +25°C° 0 mm 2 mps 756 mmHg 53%
    16:00 +25°C° 0 mm 2 mps 756 mmHg 56%
    17:00 +25°C° 0 mm 2 mps 755 mmHg 59%
    18:00 +23°C° 0 mm 2 mps 755 mmHg 64%
    19:00 +20°C° 0 mm 2 mps 755 mmHg 70%
    20:00 +19°C° 0 mm 1 mps 755 mmHg 75%
    21:00 +17°C° 0 mm 2 mps 755 mmHg 75%
    22:00 +16°C° 0 mm 2 mps 755 mmHg 75%
    23:00 +16°C° 0 mm 2 mps 755 mmHg 75%
    Show more